Miscellaneous Local Product
Issued by NWS Hastings, NE

Home | Current Version | Previous Version | Text Only | Print | Product List | Glossary Off
Versions: 1 2 3 4 5 6 7 8 9 10 11 12 13 14 15 16 17 18 19 20 21 22 23 24 25 26 27 28 29 30 31 32 33 34 35 36 37 38 39 40 41 42 43 44 45 46 47 48 49 50

062
AXUS43 KGID 240102
MISGRI

GID CWA HOURLY WEATHER ROUNDUP
NATIONAL WEATHER SERVICE HASTINGS NE
800 PM CDT SAT JUL 23 2016

NOTE: "FAIR" INDICATES FEW OR NO CLOUDS BELOW 12,000 FEET WITH NO
SIGNIFICANT WEATHER AND/OR OBSTRUCTIONS TO VISIBILITY.

...SOUTH CENTRAL NEBRASKA...

CITY           SKY/WX    TMP DP  RH WIND       PRES   REMARKS
GRAND ISLAND   CLEAR     93  72  50 CALM      29.81R HX 101
HASTINGS       CLEAR     89  78  70 N6        29.82R HX 103
KEARNEY        CLEAR     91  70  49 NW6       29.84R HX  97
ORD            CLEAR     88  75  65 SW6       29.79S HX  97
YORK           CLEAR     86  81  84 CALM      29.80R HX 102
AURORA         CLEAR     90  79  70 CALM      29.80R HX 105
LEXINGTON      SUNNY     89  75  63 S5        29.84S HX  99
HOLDREGE       CLEAR     87  74  64 N3        29.84R HX  96
HEBRON         PTCLDY    89  69  50 S6        29.78S HX  94

...NEBRASKA PANHANDLE...

CITY           SKY/WX    TMP DP  RH WIND       PRES   REMARKS
CHADRON        SUNNY     89  44  20 NE13      29.93R
ALLIANCE       MOSUNNY   85  57  38 E12       29.96R
SCOTTSBLUFF    MOSUNNY   88  56  33 MISG      29.97R
SIDNEY         LGT RAIN  80  52  37 E13G21    30.05F

...WESTERN AND NORTH CENTRAL NEBRASKA...

CITY           SKY/WX    TMP DP  RH WIND       PRES   REMARKS
VALENTINE      SUNNY     88  51  28 N12       29.89R
AINSWORTH      SUNNY     84  58  40 N13       29.88R
ONEILL         CLEAR     89  69  50 W6        29.79S HX  93
BROKEN BOW     SUNNY     86  73  65 N7        29.85R HX  93
IMPERIAL       SUNNY     91  65  41 NE5       29.92R HX  93
NORTH PLATTE   SUNNY     87  67  51 NE9       29.88R HX  90
MCCOOK         SUNNY     91  70  49 E7        29.86R HX  96

...EASTERN NEBRASKA...

CITY           SKY/WX    TMP DP  RH WIND       PRES   REMARKS
NORFOLK        CLEAR     86  76  71 S7        29.77R HX  96
SO SIOUX CITY  CLOUDY    89  77  67 SE8       29.74S HX 101
TEKAMAH        CLEAR     86  77  74 S6        29.76S HX  97
COLUMBUS       CLEAR     88  72  58 S10       29.78S HX  94
ALBION         CLEAR     87  75  67 S3        29.79S HX  97
OMAHA EPPLEY   PTCLDY    90  75  61 S14       29.76S HX 100
OFFUTT AFB     CLEAR     88  78  71 SE10      29.77S HX 100
MILLARD        CLEAR     89  77  68 SE6       29.76S HX 101
LINCOLN        PTCLDY    90  74  59 S12       29.76S HX  99
NEBRASKA CITY  PTCLDY    84  77  80 S8        29.79S HX  94
BEATRICE       CLOUDY    91  71  52 S12       29.78S HX  97
FALLS CITY     CLOUDY    87  76  69 S10       29.79S HX  97

...NORTHERN KANSAS...

CITY           SKY/WX    TMP DP  RH WIND       PRES   REMARKS
GOODLAND       SUNNY     93  55  27 E9        29.92R HX  91
HILL CITY      CLEAR     99  69  37 NE3       29.80R HX 105
NORTON         CLEAR     93  57  29 N6        29.82  HX  92
SMITH CENTER   CLEAR     99  57  25 S9        29.77S HX  97
BELOIT           N/A     95  66  38 SE12      29.75S HX  98
HAYS           CLEAR     95  59  30 S10       29.79R HX  94
RUSSELL        CLEAR     98  58  26 S15       29.77F HX  97
CONCORDIA      CLEAR     91  67  44 S14       29.78S HX  94
SALINA         CLEAR     96  69  41 SE10      29.79R HX 102
TOPEKA         CLOUDY    89  74  60 SE9       29.82F HX  98



USA.gov is the U.S. government's official web portal to all federal, state and local government web resources and services.